Location: Central Coast NSW, Australia
(33.2407°S, 151.4316°E)
Time: 06:37:14
(UTC+11:00)

Envisat - Pass Details

Date: 28 March 2019
Orbit: 764 x 766 km, 98.1° (Epoch: 19 October)

Event Time Altitude Azimuth Distance (km) Brightness Sun altitude
Rises 20:31:14 0° 172° (S) 3,263 6.3 -20.7°
Reaches altitude 10° 20:33:34 10° 174° (S) 2,330 5.6 -21.2°
Maximum altitude 20:38:39 65° 255° (WSW) 848 3.4 -22.2°
Drops below altitude 10° 20:43:40 10° 336° (NNW) 2,300 5.6 -23.3°
Sets 20:45:58 0° 339° (NNW) 3,218 6.3 -23.7°
